TAP1040 LPPT-LEBL

Flight info

Callsign TAP1040
Flight time N/A
Altitude 34000
Route ORVED DCT UREDI DCT DIPOL DCT RBO DCT PINAR DCT SEGRE DCT BRITO DCT PISUS DCT PONEN T600 CASPE
Aircraft A320/M-SDE3FGHIRWY/LB1

Departure

Time 2026-05-05 13:28
Airport Lisbon Humberto Delgado Airport (LPPT)

Arrival

Time N/A
Airport Josep Tarradellas Barcelona-El Prat Airport (LEBL)
Time Latitude Longitude Altitude Speed Heading
2026-05-05 12:59 38.76982 -9.13079 337 ft 0 kts 79°
2026-05-05 13:17 38.76982 -9.13080 337 ft 1 kts 79°
2026-05-05 13:17 38.76978 -9.13110 337 ft 4 kts 79°
2026-05-05 13:18 38.76974 -9.13136 337 ft 4 kts 89°
2026-05-05 13:18 38.76979 -9.13163 338 ft 4 kts 153°
2026-05-05 13:18 38.77002 -9.13171 338 ft 3 kts 168°
2026-05-05 13:18 38.77004 -9.13172 336 ft 0 kts 168°
2026-05-05 13:23 38.76997 -9.13170 338 ft 7 kts 168°
2026-05-05 13:23 38.76926 -9.13151 336 ft 17 kts 168°
2026-05-05 13:24 38.76815 -9.13124 335 ft 15 kts 176°
2026-05-05 13:24 38.76773 -9.13213 337 ft 11 kts 258°
2026-05-05 13:24 38.76759 -9.13297 352 ft 8 kts 258°
2026-05-05 13:24 38.76748 -9.13357 349 ft 9 kts 250°
2026-05-05 13:25 38.76662 -9.13462 352 ft 17 kts 236°
2026-05-05 13:25 38.76633 -9.13616 347 ft 18 kts 258°
2026-05-05 13:25 38.76606 -9.13779 346 ft 19 kts 258°
2026-05-05 13:25 38.76577 -9.13954 347 ft 21 kts 257°
2026-05-05 13:26 38.76509 -9.14085 355 ft 17 kts 234°
2026-05-05 13:26 38.76514 -9.14233 337 ft 15 kts 293°
2026-05-05 13:26 38.76540 -9.14311 337 ft 0 kts 292°
2026-05-05 13:26 38.76548 -9.14337 333 ft 13 kts 292°
2026-05-05 13:27 38.76634 -9.14394 335 ft 17 kts 20°
2026-05-05 13:27 38.76868 -9.14270 343 ft 69 kts 22°
2026-05-05 13:27 38.77546 -9.13907 364 ft 141 kts 22°
2026-05-05 13:27 38.78608 -9.13332 676 ft 174 kts 22°
2026-05-05 13:28 38.79716 -9.12731 1578 ft 173 kts 22°
2026-05-05 13:28 38.80897 -9.12106 2216 ft 196 kts 22°
2026-05-05 13:28 38.82169 -9.11244 2775 ft 215 kts 35°
2026-05-05 13:28 38.83491 -9.10147 3188 ft 238 kts 31°
2026-05-05 13:29 38.84974 -9.09027 3716 ft 256 kts 30°
2026-05-05 13:29 38.86470 -9.07800 4486 ft 262 kts 41°
2026-05-05 13:29 38.87584 -9.05921 5239 ft 270 kts 63°
2026-05-05 13:29 38.88425 -9.03746 6084 ft 273 kts 63°
2026-05-05 13:30 38.89266 -9.01531 6903 ft 278 kts 63°
2026-05-05 13:30 38.90122 -8.99276 7706 ft 283 kts 63°
2026-05-05 13:30 38.90997 -8.96982 8485 ft 289 kts 63°
2026-05-05 13:30 38.91890 -8.94643 9253 ft 293 kts 64°
2026-05-05 13:31 38.92793 -8.92276 10014 ft 298 kts 64°
2026-05-05 13:31 38.93718 -8.89855 10568 ft 311 kts 64°
2026-05-05 13:31 38.94697 -8.87299 10794 ft 334 kts 64°
2026-05-05 13:31 38.95753 -8.84543 11147 ft 351 kts 64°
2026-05-05 13:32 38.96844 -8.81704 11788 ft 357 kts 64°
2026-05-05 13:32 38.97952 -8.78817 12455 ft 362 kts 64°
2026-05-05 13:32 38.99071 -8.75893 13124 ft 366 kts 64°
2026-05-05 13:32 39.00200 -8.72939 13785 ft 370 kts 64°
2026-05-05 13:33 39.01338 -8.69951 14439 ft 373 kts 64°
2026-05-05 13:33 39.02486 -8.66943 15080 ft 376 kts 64°
2026-05-05 13:33 39.03645 -8.63904 15709 ft 380 kts 64°
2026-05-05 13:33 39.04813 -8.60836 16306 ft 383 kts 63°
2026-05-05 13:34 39.05991 -8.57742 16898 ft 386 kts 63°
2026-05-05 13:34 39.07178 -8.54623 17472 ft 389 kts 63°
2026-05-05 13:34 39.08373 -8.51480 18031 ft 393 kts 63°
2026-05-05 13:34 39.09559 -8.48352 18576 ft 395 kts 63°
2026-05-05 13:35 39.10770 -8.45159 19105 ft 398 kts 63°
2026-05-05 13:35 39.11988 -8.41939 19603 ft 402 kts 63°
2026-05-05 13:35 39.13214 -8.38690 20099 ft 405 kts 63°
2026-05-05 13:35 39.14448 -8.35416 20594 ft 408 kts 64°
2026-05-05 13:36 39.15687 -8.32115 21071 ft 411 kts 64°
2026-05-05 13:36 39.16937 -8.28791 21537 ft 414 kts 64°
2026-05-05 13:36 39.18198 -8.25435 21990 ft 417 kts 64°
2026-05-05 13:36 39.19462 -8.22064 22427 ft 420 kts 64°
2026-05-05 13:37 39.20736 -8.18658 22858 ft 422 kts 64°
2026-05-05 13:37 39.22018 -8.15239 23261 ft 425 kts 64°
2026-05-05 13:37 39.23308 -8.11797 23701 ft 427 kts 64°
2026-05-05 13:37 39.24586 -8.08382 24109 ft 429 kts 64°
2026-05-05 13:38 39.25888 -8.04903 24514 ft 432 kts 64°
2026-05-05 13:38 39.27198 -8.01401 24880 ft 435 kts 64°
2026-05-05 13:38 39.28512 -7.97875 25253 ft 437 kts 64°
2026-05-05 13:38 39.29827 -7.94336 25622 ft 439 kts 64°
2026-05-05 13:39 39.31151 -7.90774 25976 ft 441 kts 64°
2026-05-05 13:39 39.32484 -7.87182 26311 ft 444 kts 64°
2026-05-05 13:39 39.33824 -7.83565 26646 ft 446 kts 64°
2026-05-05 13:39 39.35166 -7.79941 26974 ft 449 kts 63°
2026-05-05 13:40 39.36517 -7.76294 27290 ft 451 kts 63°
2026-05-05 13:40 39.37872 -7.72630 27603 ft 454 kts 63°
2026-05-05 13:40 39.39235 -7.68933 27926 ft 456 kts 63°
2026-05-05 13:40 39.40599 -7.65224 28211 ft 458 kts 63°
2026-05-05 13:41 39.41969 -7.61493 28514 ft 460 kts 63°
2026-05-05 13:41 39.43345 -7.57743 28807 ft 463 kts 63°
2026-05-05 13:41 39.44730 -7.53973 29080 ft 465 kts 63°
2026-05-05 13:41 39.46119 -7.50188 29357 ft 467 kts 63°
2026-05-05 13:42 39.47516 -7.46383 29620 ft 469 kts 63°
2026-05-05 13:42 39.48916 -7.42561 29878 ft 471 kts 63°
2026-05-05 13:42 39.50318 -7.38724 30126 ft 473 kts 63°
2026-05-05 13:42 39.51709 -7.34910 30377 ft 475 kts 63°
2026-05-05 13:43 39.53125 -7.31030 30600 ft 477 kts 63°
2026-05-05 13:43 39.54543 -7.27137 30861 ft 478 kts 63°
2026-05-05 13:43 39.55962 -7.23229 31102 ft 480 kts 63°
2026-05-05 13:43 39.57379 -7.19313 31425 ft 479 kts 63°
2026-05-05 13:44 39.58796 -7.15392 31733 ft 479 kts 63°
2026-05-05 13:44 39.60207 -7.11483 32037 ft 479 kts 63°
2026-05-05 13:44 39.61612 -7.07586 32345 ft 479 kts 63°
2026-05-05 13:44 39.63025 -7.03666 32658 ft 478 kts 63°
2026-05-05 13:45 39.64432 -6.99762 32951 ft 478 kts 63°
2026-05-05 13:45 39.65841 -6.95860 33229 ft 478 kts 63°
2026-05-05 13:45 39.67249 -6.91958 33509 ft 478 kts 63°
2026-05-05 13:45 39.68655 -6.88052 33794 ft 477 kts 63°
2026-05-05 13:46 39.70054 -6.84146 34079 ft 477 kts 63°
2026-05-05 13:46 39.71433 -6.80287 34207 ft 476 kts 63°
2026-05-05 13:46 39.74200 -6.72535 34235 ft 471 kts 62°
2026-05-05 13:47 39.76954 -6.64820 34233 ft 470 kts 63°
2026-05-05 13:47 39.79700 -6.57103 34238 ft 470 kts 63°
2026-05-05 13:48 39.82432 -6.49385 34237 ft 470 kts 63°
2026-05-05 13:48 39.85155 -6.41659 34233 ft 470 kts 63°
2026-05-05 13:49 39.87841 -6.33902 34232 ft 470 kts 64°
2026-05-05 13:49 39.90435 -6.26075 34231 ft 470 kts 64°
2026-05-05 13:50 39.93003 -6.18255 34227 ft 470 kts 64°
2026-05-05 13:50 39.95567 -6.10481 34231 ft 470 kts 64°
2026-05-05 13:51 39.98156 -6.02659 34236 ft 470 kts 64°
2026-05-05 13:51 40.00742 -5.94829 34238 ft 470 kts 64°
2026-05-05 13:52 40.03320 -5.86993 34233 ft 470 kts 64°
2026-05-05 13:52 40.05885 -5.79148 34234 ft 470 kts 64°
2026-05-05 13:53 40.08446 -5.71304 34244 ft 470 kts 64°
2026-05-05 13:53 40.11008 -5.63461 34243 ft 469 kts 64°
2026-05-05 13:54 40.13558 -5.55613 34250 ft 469 kts 64°
2026-05-05 13:54 40.16099 -5.47748 34258 ft 469 kts 64°
2026-05-05 13:55 40.18634 -5.39893 34259 ft 468 kts 65°
2026-05-05 13:55 40.21163 -5.32050 34262 ft 468 kts 65°
2026-05-05 13:56 40.23688 -5.24212 34264 ft 467 kts 65°
2026-05-05 13:56 40.26195 -5.16382 34263 ft 466 kts 65°
2026-05-05 13:57 40.28694 -5.08550 34263 ft 465 kts 65°
2026-05-05 13:57 40.31180 -5.00733 34266 ft 465 kts 65°
2026-05-05 13:58 40.33645 -4.92969 34265 ft 464 kts 65°
2026-05-05 13:58 40.36121 -4.85172 34257 ft 463 kts 65°
2026-05-05 13:59 40.39820 -4.73480 34251 ft 462 kts 65°
2026-05-05 14:00 40.43074 -4.63085 34250 ft 462 kts 65°
2026-05-05 14:00 40.45928 -4.53967 34246 ft 462 kts 65°
2026-05-05 14:01 40.48368 -4.46174 34243 ft 461 kts 65°
2026-05-05 14:01 40.50797 -4.38365 34244 ft 461 kts 65°
2026-05-05 14:02 40.53202 -4.30615 34246 ft 461 kts 65°
2026-05-05 14:02 40.55623 -4.22793 34243 ft 461 kts 65°
2026-05-05 14:03 40.58035 -4.14977 34240 ft 461 kts 65°
2026-05-05 14:03 40.60440 -4.07153 34238 ft 461 kts 65°
2026-05-05 14:04 40.62843 -3.99311 34243 ft 461 kts 65°
2026-05-05 14:04 40.65235 -3.91496 34247 ft 460 kts 65°
2026-05-05 14:05 40.67620 -3.83682 34250 ft 459 kts 65°
2026-05-05 14:05 40.69996 -3.75875 34250 ft 458 kts 65°
2026-05-05 14:06 40.72357 -3.68080 34251 ft 458 kts 65°
2026-05-05 14:06 40.74711 -3.60274 34254 ft 458 kts 65°
2026-05-05 14:07 40.77062 -3.52478 34258 ft 457 kts 65°
2026-05-05 14:07 40.79407 -3.44679 34258 ft 457 kts 65°
2026-05-05 14:08 40.81728 -3.36934 34257 ft 456 kts 65°
2026-05-05 14:08 40.84052 -3.29147 34254 ft 455 kts 66°
2026-05-05 14:09 40.86076 -3.21220 34252 ft 457 kts 73°
2026-05-05 14:09 40.87679 -3.13085 34254 ft 456 kts 73°
2026-05-05 14:10 40.89284 -3.04968 34258 ft 456 kts 73°
2026-05-05 14:10 40.90878 -2.96850 34256 ft 456 kts 73°
2026-05-05 14:11 40.92460 -2.88734 34255 ft 455 kts 73°
2026-05-05 14:11 40.94034 -2.80629 34256 ft 455 kts 73°
2026-05-05 14:12 40.95607 -2.72526 34256 ft 455 kts 73°
2026-05-05 14:12 40.97174 -2.64417 34256 ft 455 kts 73°
2026-05-05 14:13 40.98722 -2.56358 34255 ft 455 kts 73°
2026-05-05 14:13 41.00271 -2.48254 34258 ft 454 kts 73°
2026-05-05 14:14 41.01550 -2.41510 34251 ft 454 kts 73°
2026-05-05 14:14 41.03082 -2.33414 34249 ft 453 kts 73°
2026-05-05 14:15 41.04616 -2.25313 34248 ft 453 kts 73°
2026-05-05 14:15 41.06143 -2.17214 34251 ft 452 kts 73°
2026-05-05 14:16 41.07655 -2.09125 34246 ft 452 kts 73°
2026-05-05 14:16 41.09164 -2.01029 34247 ft 452 kts 73°
2026-05-05 14:17 41.10666 -1.92938 34246 ft 452 kts 73°
2026-05-05 14:17 41.12160 -1.84917 34253 ft 451 kts 73°
2026-05-05 14:18 41.13651 -1.76831 34250 ft 451 kts 73°
2026-05-05 14:18 41.15134 -1.68751 34249 ft 451 kts 73°
2026-05-05 14:19 41.16612 -1.60671 34247 ft 450 kts 73°
2026-05-05 14:19 41.18078 -1.52589 34250 ft 451 kts 73°
2026-05-05 14:20 41.19541 -1.44499 34247 ft 450 kts 73°
2026-05-05 14:20 41.21006 -1.36407 34242 ft 450 kts 73°
2026-05-05 14:21 41.22471 -1.28318 34246 ft 450 kts 73°
2026-05-05 14:21 41.23919 -1.20219 34245 ft 450 kts 74°
2026-05-05 14:22 41.25359 -1.12116 34245 ft 451 kts 74°
2026-05-05 14:22 41.26791 -1.04011 34244 ft 451 kts 74°
2026-05-05 14:23 41.28217 -0.95949 34247 ft 450 kts 74°
2026-05-05 14:23 41.29649 -0.87840 34246 ft 451 kts 74°
2026-05-05 14:24 41.31073 -0.79725 34246 ft 450 kts 74°
2026-05-05 14:24 41.32485 -0.71600 34244 ft 450 kts 74°
2026-05-05 14:25 41.33889 -0.63492 34242 ft 450 kts 74°
2026-05-05 14:25 41.35018 -0.55303 34234 ft 453 kts 85°
2026-05-05 14:26 41.34512 -0.46912 34107 ft 461 kts 96°
2026-05-05 14:26 41.34034 -0.42699 33796 ft 459 kts 96°
2026-05-05 14:26 41.33568 -0.38520 33404 ft 451 kts 96°
2026-05-05 14:27 41.33131 -0.34447 33304 ft 438 kts 95°
2026-05-05 14:27 41.32718 -0.30485 33038 ft 429 kts 95°
2026-05-05 14:27 41.32317 -0.26558 32463 ft 429 kts 95°
2026-05-05 14:27 41.31919 -0.22629 31910 ft 427 kts 95°
2026-05-05 14:28 41.31522 -0.18717 31351 ft 427 kts 95°
2026-05-05 14:28 41.31128 -0.14863 30815 ft 425 kts 95°
2026-05-05 14:28 41.30723 -0.10981 30276 ft 424 kts 95°
2026-05-05 14:28 41.30314 -0.07109 29739 ft 422 kts 95°
2026-05-05 14:29 41.29901 -0.03250 29203 ft 420 kts 95°
2026-05-05 14:29 41.29489 0.00585 28675 ft 418 kts 95°
2026-05-05 14:29 41.29081 0.04403 28152 ft 416 kts 94°
2026-05-05 14:29 41.28677 0.08198 27635 ft 413 kts 95°
2026-05-05 14:30 41.28274 0.11963 27136 ft 410 kts 95°
2026-05-05 14:30 41.27872 0.15705 26647 ft 407 kts 95°
2026-05-05 14:30 41.27472 0.19418 26173 ft 403 kts 95°
2026-05-05 14:30 41.27080 0.23041 25709 ft 400 kts 95°
2026-05-05 14:31 41.26683 0.26679 25245 ft 396 kts 95°
2026-05-05 14:31 41.26287 0.30298 24786 ft 393 kts 95°
2026-05-05 14:31 41.25895 0.33878 24316 ft 390 kts 95°
2026-05-05 14:31 41.25505 0.37436 23858 ft 388 kts 95°
2026-05-05 14:32 41.25117 0.40972 23397 ft 385 kts 95°
2026-05-05 14:32 41.24731 0.44478 22926 ft 383 kts 95°
2026-05-05 14:32 41.24346 0.47976 22455 ft 381 kts 95°
2026-05-05 14:32 41.23961 0.51459 21979 ft 380 kts 95°
2026-05-05 14:33 41.23575 0.54926 21502 ft 379 kts 95°
2026-05-05 14:33 41.23187 0.58384 21025 ft 378 kts 95°
2026-05-05 14:33 41.22800 0.61832 20539 ft 377 kts 96°
2026-05-05 14:33 41.22414 0.65274 20061 ft 376 kts 96°
2026-05-05 14:34 41.22032 0.68701 19579 ft 375 kts 96°
2026-05-05 14:34 41.21649 0.72126 19102 ft 375 kts 96°
2026-05-05 14:34 41.21265 0.75548 18627 ft 374 kts 96°
2026-05-05 14:34 41.20883 0.78911 18161 ft 373 kts 96°
2026-05-05 14:35 41.20495 0.82308 17696 ft 372 kts 96°
2026-05-05 14:35 41.20108 0.85698 17229 ft 370 kts 96°
2026-05-05 14:35 41.19721 0.89072 16769 ft 369 kts 96°
2026-05-05 14:35 41.19337 0.92440 16310 ft 368 kts 96°
2026-05-05 14:36 41.18955 0.95785 15856 ft 366 kts 96°
2026-05-05 14:36 41.18574 0.99123 15400 ft 364 kts 96°
2026-05-05 14:36 41.18191 1.02445 14950 ft 362 kts 96°
2026-05-05 14:36 41.17806 1.05743 14500 ft 360 kts 96°
2026-05-05 14:37 41.17423 1.09026 14044 ft 359 kts 96°
2026-05-05 14:37 41.17043 1.12291 13593 ft 357 kts 96°
2026-05-05 14:37 41.16664 1.15534 13135 ft 355 kts 96°
2026-05-05 14:37 41.16287 1.18759 12680 ft 353 kts 96°
2026-05-05 14:38 41.15911 1.21971 12218 ft 351 kts 96°
2026-05-05 14:38 41.15536 1.25162 11761 ft 349 kts 96°
2026-05-05 14:38 41.15160 1.28336 11303 ft 347 kts 97°
2026-05-05 14:38 41.14785 1.31488 10836 ft 345 kts 97°
2026-05-05 14:39 41.14415 1.34619 10430 ft 341 kts 97°
2026-05-05 14:39 41.14053 1.37667 10292 ft 329 kts 97°
2026-05-05 14:39 41.13702 1.40608 10202 ft 316 kts 97°
2026-05-05 14:39 41.13366 1.43424 10065 ft 303 kts 97°
2026-05-05 14:40 41.13037 1.46185 9293 ft 304 kts 97°
2026-05-05 14:40 41.12706 1.48955 8564 ft 303 kts 97°
2026-05-05 14:40 41.12383 1.51634 8294 ft 285 kts 97°
2026-05-05 14:40 41.12089 1.54153 8158 ft 269 kts 93°
2026-05-05 14:41 41.12170 1.56554 8033 ft 254 kts 76°
2026-05-05 14:41 41.12733 1.58743 7701 ft 249 kts 62°
2026-05-05 14:41 41.13471 1.60812 7380 ft 247 kts 62°
2026-05-05 14:41 41.14189 1.62865 7072 ft 244 kts 63°
2026-05-05 14:42 41.14895 1.64899 6769 ft 241 kts 63°
2026-05-05 14:42 41.15590 1.66907 6465 ft 238 kts 63°
2026-05-05 14:42 41.16267 1.68864 6188 ft 235 kts 63°
2026-05-05 14:42 41.16959 1.70880 5495 ft 248 kts 63°
2026-05-05 14:43 41.17700 1.73035 4653 ft 266 kts 63°
2026-05-05 14:43 41.18488 1.75313 3718 ft 275 kts 64°
2026-05-05 14:43 41.19272 1.77578 3389 ft 260 kts 64°
2026-05-05 14:43 41.19993 1.79657 3298 ft 236 kts 64°
2026-05-05 14:44 41.20656 1.81574 3308 ft 222 kts 64°
2026-05-05 14:44 41.21277 1.83372 3323 ft 207 kts 64°
2026-05-05 14:44 41.21869 1.85082 3340 ft 202 kts 65°
2026-05-05 14:44 41.22448 1.86754 3342 ft 192 kts 64°
2026-05-05 14:45 41.22983 1.88302 3295 ft 177 kts 64°
2026-05-05 14:45 41.23497 1.89795 2945 ft 181 kts 64°
2026-05-05 14:45 41.24026 1.91326 2626 ft 183 kts 64°
2026-05-05 14:45 41.24554 1.92858 2351 ft 181 kts 64°
2026-05-05 14:46 41.25068 1.94349 2124 ft 170 kts 63°
2026-05-05 14:46 41.25537 1.95710 1887 ft 154 kts 63°
2026-05-05 14:46 41.25975 1.96981 1701 ft 148 kts 62°
2026-05-05 14:46 41.26399 1.98212 1509 ft 147 kts 62°
2026-05-05 14:47 41.26820 1.99437 1297 ft 145 kts 61°
2026-05-05 14:47 41.27239 2.00654 1100 ft 145 kts 62°
2026-05-05 14:47 41.27657 2.01872 908 ft 145 kts 61°
2026-05-05 14:47 41.28074 2.03078 695 ft 143 kts 61°
2026-05-05 14:48 41.28487 2.04284 487 ft 143 kts 62°
2026-05-05 14:48 41.28907 2.05498 302 ft 146 kts 64°
2026-05-05 14:48 41.29318 2.06716 121 ft 144 kts 62°
2026-05-05 14:48 41.29705 2.07925 41 ft 141 kts 56°
2026-05-05 14:49 41.30054 2.09127 716 ft 131 kts 61°
2026-05-05 14:49 41.30446 2.10281 1384 ft 146 kts 61°
2026-05-05 14:49 41.30913 2.11589 1950 ft 166 kts 57°
2026-05-05 14:49 41.31742 2.12725 2234 ft 183 kts 33°
2026-05-05 14:50 41.32880 2.13713 2532 ft 209 kts 30°
2026-05-05 14:50 41.34162 2.14736 3203 ft 218 kts 30°
2026-05-05 14:50 41.35484 2.15766 4039 ft 221 kts 28°
2026-05-05 14:50 41.36812 2.16805 4913 ft 222 kts 29°
2026-05-05 14:51 41.38144 2.17860 5791 ft 223 kts 29°
2026-05-05 14:51 41.39472 2.18930 6664 ft 223 kts 29°
2026-05-05 14:51 41.40793 2.20013 7524 ft 222 kts 29°
2026-05-05 14:51 41.42099 2.21087 8407 ft 219 kts 30°
2026-05-05 14:52 41.43274 2.22480 8761 ft 240 kts 54°
2026-05-05 14:52 41.43871 2.24577 8360 ft 250 kts 72°
2026-05-05 14:52 41.44277 2.26859 8008 ft 251 kts 74°
2026-05-05 14:52 41.44642 2.29087 7930 ft 241 kts 74°
2026-05-05 14:53 41.45094 2.31161 7871 ft 226 kts 63°
2026-05-05 14:53 41.45706 2.33021 7737 ft 215 kts 62°
2026-05-05 14:53 41.46293 2.34781 7632 ft 201 kts 62°
2026-05-05 14:53 41.46838 2.36455 7493 ft 192 kts 66°
2026-05-05 14:54 41.46926 2.38205 7360 ft 190 kts 95°
2026-05-05 14:54 41.46640 2.39893 7232 ft 183 kts 100°
2026-05-05 14:54 41.46245 2.41509 6981 ft 186 kts 117°
2026-05-05 14:54 41.45306 2.42698 6762 ft 189 kts 147°
2026-05-05 14:55 41.44091 2.43378 6504 ft 191 kts 167°
2026-05-05 14:55 41.42770 2.43509 6256 ft 190 kts 187°
2026-05-05 14:55 41.41503 2.43080 6008 ft 188 kts 207°
2026-05-05 14:55 41.40434 2.42147 5755 ft 181 kts 238°
2026-05-05 14:56 41.39915 2.40683 5529 ft 174 kts 259°
2026-05-05 14:56 41.39716 2.39114 5282 ft 171 kts 270°
2026-05-05 14:56 41.39445 2.37559 5042 ft 174 kts 257°
2026-05-05 14:56 41.39124 2.36018 4814 ft 173 kts 258°
2026-05-05 14:57 41.38726 2.34512 4535 ft 172 kts 253°
2026-05-05 14:57 41.38266 2.33040 4237 ft 171 kts 250°
2026-05-05 14:57 41.37786 2.31585 3933 ft 172 kts 250°
2026-05-05 14:57 41.37300 2.30141 3637 ft 170 kts 249°
2026-05-05 14:58 41.36820 2.28725 3405 ft 165 kts 249°
2026-05-05 14:58 41.36356 2.27353 3148 ft 161 kts 249°
2026-05-05 14:58 41.35896 2.25997 2853 ft 160 kts 248°
2026-05-05 14:58 41.35429 2.24621 2464 ft 168 kts 248°
2026-05-05 14:59 41.34948 2.23206 2142 ft 165 kts 249°
2026-05-05 14:59 41.34482 2.21842 1891 ft 158 kts 249°
2026-05-05 14:59 41.34043 2.20550 1692 ft 148 kts 249°
2026-05-05 14:59 41.33631 2.19342 1475 ft 143 kts 249°
2026-05-05 15:00 41.33223 2.18146 1301 ft 141 kts 249°
2026-05-05 15:00 41.32951 2.17349 1170 ft 139 kts 250°
2026-05-05 15:00 41.32552 2.16182 990 ft 138 kts 250°
2026-05-05 15:00 41.32161 2.15020 812 ft 137 kts 249°
2026-05-05 15:01 41.31761 2.13864 618 ft 138 kts 249°
2026-05-05 15:01 41.31372 2.12724 395 ft 136 kts 250°
2026-05-05 15:01 41.30983 2.11569 230 ft 141 kts 249°
2026-05-05 15:01 41.30587 2.10403 48 ft 136 kts 248°
2026-05-05 15:02 41.30219 2.09301 23 ft 119 kts 239°
2026-05-05 15:02 41.29941 2.08498 24 ft 63 kts 240°